#timestamp,LO_Frequency,Hit,StdDev 
1583719215.9,286047001.8,N
1583719235.7,286047002.5,N
1583719255.5,286047000.0,N
1583719275.4,286047000.8,N
1583719295.2,286047000.2,N
1583719315.1,286047000.6,N
1583719316.0,286047000.6,N
1583719335.8,286046998.7,N
1583719355.6,286046999.8,N
1583719375.5,286046999.3,N
1583719395.3,286046996.6,N
1583719415.1,286046996.6,N
1583719435.9,286046997.7,N
1583719455.7,286046997.0,N
1583719475.6,286046997.3,N
1583719495.4,286046995.3,N
1583719515.2,286046997.2,N
1583719535.1,286046999.2,N
1583719536.0,286046999.2,N
1583719555.8,286046997.0,N
1583719575.7,286046997.1,N
1583719595.5,286046998.4,N
1583719615.3,286046999.1,N
1583719635.2,286047000.3,N
1583719655.0,286047000.6,N
1583719655.9,286047000.6,N
1583719675.7,286046998.8,N
1583719695.6,286046996.5,N
1583719715.4,286046997.5,N
1583719735.3,286046997.9,N
1583719755.1,286046997.6,N
1583719775.8,286047000.8,N
1583719795.7,286046998.2,N
1583719815.5,286046998.8,N
1583719835.4,286046998.6,N
1583719855.2,286046999.2,N
1583719875.0,286046997.7,N
1583719875.9,286046997.7,N
1583719895.8,286046997.1,N
1583719915.6,286046997.7,N
1583719935.5,286046997.2,N
1583719955.3,286046997.0,N
1583719975.1,286046999.4,N
1583719995.9,286047001.0,N
1583720015.7,286046998.2,N
1583720035.6,286046999.2,N
1583720055.4,286046998.6,N
1583720075.2,286046995.0,Y
1583720095.1,286046997.9,P
1583720096.0,286046997.9,P
1583720115.8,286046996.7,P
1583720135.7,286047002.3,Y
1583720155.5,286047001.9,P
1583720175.3,286046999.9,N
1583720195.2,286047000.1,N
1583720215.0,286047004.1,N
1583720215.9,286047004.1,N
1583720235.8,286047001.7,N
1583720255.6,286047000.0,N
1583720275.4,286047000.0,N
1583720295.3,286047002.5,N
1583720315.1,286047003.8,N
1583720335.9,286047003.6,N
1583720355.7,286047006.0,Y
1583720375.5,286047002.8,P
1583720395.4,286047000.2,N
1583720415.2,286047000.2,N
1583720435.1,286047003.9,Y
1583720436.0,286047003.9,P
1583720455.8,286047001.4,N
1583720475.6,286047000.1,N
1583720495.5,286047000.8,N
1583720515.3,286047000.3,N
1583720535.2,286047004.2,Y
1583720555.9,286047002.0,P
1583720575.7,286047002.6,P
1583720595.6,286047001.5,N
1583720615.4,286047004.4,Y
1583720635.3,286047000.2,P
1583720655.1,286047000.3,N
1583720656.0,286047000.3,N
1583720675.8,286047002.8,Y
1583720695.7,286047002.4,P
1583720715.5,286046999.7,N
1583720735.4,286047000.2,N
1583720755.2,286047000.7,N
1583720775.0,286046998.7,N
1583720775.9,286046998.7,N
1583720795.8,286047000.7,N
1583720815.6,286047000.3,N
1583720835.5,286046998.3,N
1583720855.3,286047002.7,N
1583720875.1,286047000.0,N
1583720895.9,286046997.1,N
1583720915.7,286046997.9,N
1583720935.5,286046999.2,N
1583720955.4,286047000.5,N
1583720975.2,286047000.1,N
1583720995.1,286047000.4,N
1583720996.0,286047000.4,N
1583721015.8,286047002.4,N
1583721035.6,286047000.5,N
1583721055.5,286047000.7,N
1583721075.3,286046999.4,N
1583721095.1,286046999.1,N
1583721115.9,286046998.3,N
1583721135.7,286046998.5,N
1583721155.6,286046999.6,N
1583721175.4,286046999.1,N
1583721195.2,286046997.1,N
1583721215.1,286046999.5,N
1583721216.0,286046999.5,N
1583721235.8,286046996.7,N
1583721255.7,286046996.1,N
1583721275.5,286046994.4,Y
1583721295.3,286046996.2,P
1583721315.2,286046997.5,N
1583721335.0,286046999.4,N
1583721335.9,286046999.4,N
1583721355.8,286046998.2,N
1583721375.6,286046998.4,N
1583721395.4,286046996.5,Y
1583721415.3,286046997.9,P
1583721435.1,286046995.1,P
1583721455.9,286046995.5,P
1583721475.7,286046996.8,N
1583721495.5,286046996.7,N
1583721515.4,286046996.5,Y
1583721535.2,286047004.3,P
1583721555.0,286047004.2,N
1583721555.9,286047004.2,N
1583721575.8,286047003.3,N
1583721595.6,286047003.4,N
1583721615.5,286047007.1,N
1583721635.3,286047005.7,N
1583721655.1,286047005.4,N
1583721675.9,286047003.7,N
1583721695.7,286047005.2,N
1583721715.5,286047003.5,N
1583721735.4,286047004.4,N
1583721755.2,286047004.2,N
1583721775.1,286047000.8,N
1583721776.0,286047000.8,N
1583721795.8,286047002.7,N
1583721815.6,286047001.3,N
1583721835.5,286047004.4,N
1583721855.3,286047001.9,N
1583721875.2,286047002.9,N
1583721895.9,286047005.0,N
1583721915.7,286047006.8,Y
1583721935.6,286047001.3,P
1583721955.4,286047004.2,P
1583721975.3,286046999.8,N
1583721995.1,286046999.7,N
1583721996.0,286046999.7,N
1583722015.8,286047000.9,N
1583722035.7,286046998.3,N
1583722055.5,286047000.1,N
1583722075.3,286047004.3,N
1583722095.2,286047003.3,N
1583722115.0,286047004.4,N
1583722115.9,286047004.4,N
1583722135.8,286047004.2,N
1583722155.6,286047004.4,N
1583722175.4,286047004.3,N
1583722195.3,286047001.5,N
1583722215.1,286046998.1,N
1583722235.9,286046999.0,N
1583722255.7,286047002.8,N
1583722275.5,286047003.9,N
1583722295.4,286047001.3,N
1583722315.2,286047004.4,N
1583722335.0,286047001.7,N
1583722336.0,286047001.7,N
1583722355.8,286047003.5,N
1583722375.6,286047003.3,N
1583722395.5,286047002.9,N
1583722415.3,286047006.0,N
1583722435.1,286047005.9,N
1583722455.9,286047003.3,N
1583722475.7,286047004.1,N
1583722495.6,286047003.8,N
1583722515.4,286047003.1,N
1583722535.2,286047004.4,N
1583722555.1,286047001.7,N
1583722556.0,286047001.7,N
1583722575.8,286047003.2,N
1583722595.7,286047001.5,N
1583722615.5,286047004.4,N
1583722635.3,286047004.1,N
1583722655.2,286047002.2,N
1583722675.0,286047004.2,N
1583722675.9,286047004.2,N
1583722695.8,286047004.2,N
1583722715.6,286047002.6,N
1583722735.4,286047001.4,N
1583722755.3,286047001.5,N
1583722775.1,286047001.5,N
1583722795.8,286047000.7,N
